• In Belarus
  • List of Countries
  • For 7 days
  • Water Temperature
  • Satellite Maps
  • Weather Map
  • Weather Widgets
  • user-avatar
    Login

    Hourly Weather Mayrhofen

    Today, 16 December, Saturday

    Time Temperature Precipitation Wind Pressure Humidity
    00:00 -12°C° 0 mm 2 mps 602 mmHg 92%
    01:00 -12°C° 0 mm 2 mps 602 mmHg 90%
    02:00 -12°C° 0 mm 2 mps 602 mmHg 90%
    03:00 -13°C° 0 mm 2 mps 602 mmHg 90%
    04:00 -13°C° 0 mm 2 mps 602 mmHg 90%
    05:00 -14°C° 0 mm 2 mps 602 mmHg 89%
    06:00 -14°C° 0 mm 2 mps 602 mmHg 88%
    07:00 -12°C° 0 mm 2 mps 604 mmHg 86%
    08:00 -10°C° 0.1 mm 2 mps 604 mmHg 86%
    09:00 -8°C° 0.1 mm 1 mps 605 mmHg 86%
    10:00 -7°C° 0.1 mm 1 mps 606 mmHg 86%
    11:00 -7°C° 0.2 mm 1 mps 606 mmHg 86%
    12:00 -6°C° 0.2 mm 1 mps 607 mmHg 85%
    13:00 -7°C° 0 mm 2 mps 608 mmHg 87%
    14:00 -7°C° 0.4 mm 2 mps 608 mmHg 88%
    15:00 -7°C° 0.4 mm 2 mps 608 mmHg 90%
    16:00 -8°C° 0.4 mm 2 mps 608 mmHg 92%
    17:00 -8°C° 0.6 mm 2 mps 609 mmHg 93%
    18:00 -9°C° 0.6 mm 2 mps 609 mmHg 93%
    19:00 -9°C° 0.6 mm 2 mps 610 mmHg 94%
    20:00 -9°C° 0.5 mm 2 mps 610 mmHg 94%
    21:00 -9°C° 0.5 mm 2 mps 611 mmHg 94%
    22:00 -9°C° 0.5 mm 2 mps 611 mmHg 94%
    23:00 -10°C° 0.3 mm 2 mps 611 mmHg 94%

    Tomorrow, 17 December, Sunday

    Time Temperature Precipitation Wind Pressure Humidity
    00:00 -10°C° 0.3 mm 2 mps 611 mmHg 94%
    01:00 -12°C° 0.3 mm 2 mps 611 mmHg 94%
    02:00 -12°C° 0.3 mm 2 mps 612 mmHg 93%
    03:00 -12°C° 0.3 mm 2 mps 612 mmHg 93%
    04:00 -12°C° 0.3 mm 2 mps 612 mmHg 93%
    05:00 -12°C° 0.3 mm 2 mps 612 mmHg 93%
    06:00 -12°C° 0.3 mm 2 mps 612 mmHg 93%
    07:00 -13°C° 0.3 mm 2 mps 612 mmHg 92%
    08:00 -12°C° 0.3 mm 2 mps 613 mmHg 92%
    09:00 -10°C° 0.3 mm 2 mps 614 mmHg 91%
    10:00 -10°C° 0.3 mm 2 mps 614 mmHg 91%
    11:00 -9°C° 0.3 mm 2 mps 615 mmHg 89%
    12:00 -9°C° 0.3 mm 2 mps 615 mmHg 88%
    13:00 -8°C° 0.3 mm 2 mps 615 mmHg 87%
    14:00 -9°C° 0.2 mm 2 mps 615 mmHg 88%
    15:00 -10°C° 0.2 mm 2 mps 615 mmHg 90%
    16:00 -10°C° 0.2 mm 2 mps 615 mmHg 92%
    17:00 -12°C° 0.1 mm 2 mps 615 mmHg 92%
    18:00 -13°C° 0.1 mm 2 mps 615 mmHg 93%
    19:00 -14°C° 0.1 mm 2 mps 615 mmHg 93%
    20:00 -15°C° 0 mm 2 mps 615 mmHg 92%
    21:00 -16°C° 0 mm 2 mps 615 mmHg 92%
    22:00 -16°C° 0 mm 2 mps 616 mmHg 91%
    23:00 -17°C° 0 mm 2 mps 615 mmHg 90%

    Day after tomorrow, 18 December, Monday

    Time Temperature Precipitation Wind Pressure Humidity
    00:00 -17°C° 0 mm 2 mps 615 mmHg 89%
    01:00 -17°C° 0 mm 2 mps 615 mmHg 88%
    02:00 -18°C° 0 mm 2 mps 615 mmHg 87%
    03:00 -18°C° 0 mm 2 mps 615 mmHg 86%
    04:00 -18°C° 0 mm 2 mps 615 mmHg 85%
    05:00 -17°C° 0 mm 2 mps 615 mmHg 83%
    06:00 -16°C° 0 mm 2 mps 615 mmHg 81%
    07:00 -15°C° 0 mm 2 mps 615 mmHg 79%
    08:00 -14°C° 0.1 mm 2 mps 616 mmHg 80%
    09:00 -10°C° 0.1 mm 1 mps 616 mmHg 80%
    10:00 -9°C° 0.1 mm 1 mps 616 mmHg 81%
    11:00 -8°C° 0.5 mm 1 mps 616 mmHg 83%
    12:00 -7°C° 0.5 mm 1 mps 616 mmHg 86%
    13:00 -6°C° 0.5 mm 1 mps 615 mmHg 88%
    14:00 -6°C° 0.6 mm 1 mps 615 mmHg 90%
    15:00 -6°C° 0.6 mm 1 mps 615 mmHg 92%
    16:00 -6°C° 0.6 mm 1 mps 615 mmHg 94%
    17:00 -7°C° 0.3 mm 1 mps 616 mmHg 94%
    18:00 -7°C° 0.3 mm 1 mps 616 mmHg 94%
    19:00 -8°C° 0.3 mm 2 mps 617 mmHg 94%
    20:00 -8°C° 0.1 mm 2 mps 617 mmHg 94%
    21:00 -9°C° 0.1 mm 2 mps 617 mmHg 94%
    22:00 -9°C° 0.1 mm 2 mps 618 mmHg 94%
    23:00 -9°C° 0.1 mm 2 mps 618 mmHg 94%

    19 December, Tuesday

    Time Temperature Precipitation Wind Pressure Humidity
    00:00 -10°C° 0.1 mm 2 mps 618 mmHg 94%
    01:00 -10°C° 0.1 mm 2 mps 619 mmHg 94%
    02:00 -10°C° 0.1 mm 2 mps 619 mmHg 94%
    03:00 -10°C° 0.1 mm 2 mps 619 mmHg 93%
    04:00 -10°C° 0.1 mm 2 mps 619 mmHg 93%
    05:00 -10°C° 0.1 mm 2 mps 619 mmHg 93%
    06:00 -10°C° 0.1 mm 2 mps 620 mmHg 93%
    07:00 -10°C° 0.1 mm 2 mps 620 mmHg 93%
    08:00 -9°C° 0.1 mm 2 mps 621 mmHg 92%
    09:00 -9°C° 0.1 mm 2 mps 622 mmHg 92%
    10:00 -8°C° 0.1 mm 2 mps 622 mmHg 91%
    11:00 -7°C° 0 mm 2 mps 622 mmHg 90%
    12:00 -6°C° 0 mm 2 mps 622 mmHg 89%
    13:00 -5°C° 0 mm 2 mps 623 mmHg 88%
    14:00 -6°C° 0 mm 2 mps 622 mmHg 90%
    15:00 -7°C° 0 mm 2 mps 622 mmHg 92%
    16:00 -8°C° 0 mm 2 mps 622 mmHg 93%
    17:00 -8°C° 0 mm 2 mps 622 mmHg 93%
    18:00 -9°C° 0 mm 2 mps 622 mmHg 93%
    19:00 -9°C° 0 mm 2 mps 622 mmHg 93%
    20:00 -9°C° 0.1 mm 2 mps 622 mmHg 92%
    21:00 -9°C° 0.1 mm 2 mps 622 mmHg 91%
    22:00 -8°C° 0.1 mm 2 mps 622 mmHg 90%
    23:00 -8°C° 0.5 mm 2 mps 622 mmHg 91%

    20 December, Wednesday

    Time Temperature Precipitation Wind Pressure Humidity
    00:00 -8°C° 0.5 mm 2 mps 622 mmHg 92%
    01:00 -7°C° 0.5 mm 2 mps 622 mmHg 93%
    02:00 -7°C° 1.1 mm 2 mps 622 mmHg 93%
    03:00 -6°C° 1.1 mm 2 mps 622 mmHg 94%
    04:00 -7°C° 1.1 mm 3 mps 622 mmHg 94%
    05:00 -7°C° 1.3 mm 3 mps 622 mmHg 94%
    06:00 -7°C° 1.3 mm 3 mps 622 mmHg 94%
    07:00 -7°C° 1.3 mm 3 mps 622 mmHg 94%
    08:00 -6°C° 1.1 mm 3 mps 622 mmHg 94%
    09:00 -6°C° 1.1 mm 3 mps 623 mmHg 93%
    10:00 -5°C° 1.1 mm 3 mps 623 mmHg 93%
    11:00 -5°C° 0.6 mm 3 mps 623 mmHg 93%
    12:00 -4°C° 0.6 mm 3 mps 623 mmHg 93%
    13:00 -4°C° 0.6 mm 3 mps 623 mmHg 94%
    14:00 -4°C° 0.4 mm 3 mps 623 mmHg 94%
    15:00 -4°C° 0.4 mm 3 mps 623 mmHg 94%
    16:00 -4°C° 0.4 mm 3 mps 623 mmHg 94%
    17:00 -4°C° 0.5 mm 3 mps 623 mmHg 94%
    18:00 -5°C° 0.5 mm 3 mps 623 mmHg 93%
    19:00 -5°C° 0.5 mm 3 mps 623 mmHg 93%
    20:00 -5°C° 0.5 mm 3 mps 624 mmHg 93%
    21:00 -4°C° 0.5 mm 2 mps 624 mmHg 94%
    22:00 -3°C° 0.5 mm 2 mps 624 mmHg 94%
    23:00 -3°C° 0.9 mm 2 mps 624 mmHg 94%

    21 December, Thursday

    Time Temperature Precipitation Wind Pressure Humidity
    00:00 -3°C° 0.9 mm 2 mps 624 mmHg 94%
    01:00 -3°C° 0.9 mm 2 mps 624 mmHg 94%
    02:00 -3°C° 1 mm 2 mps 624 mmHg 95%
    03:00 -3°C° 1 mm 2 mps 624 mmHg 95%
    04:00 -2°C° 1 mm 2 mps 624 mmHg 95%
    05:00 -2°C° 0.6 mm 3 mps 624 mmHg 95%
    06:00 -2°C° 0.6 mm 3 mps 624 mmHg 95%
    07:00 -2°C° 0.6 mm 3 mps 624 mmHg 95%
    08:00 -2°C° 0.3 mm 3 mps 625 mmHg 95%
    09:00 -2°C° 0.3 mm 2 mps 625 mmHg 95%
    10:00 -1°C° 0.3 mm 2 mps 625 mmHg 95%
    11:00 -1°C° 0.1 mm 2 mps 625 mmHg 96%
    12:00 -1°C° 0.1 mm 2 mps 625 mmHg 97%
    13:00 +1°C° 0.1 mm 2 mps 625 mmHg 98%
    14:00 +1°C° 0.3 mm 2 mps 625 mmHg 97%
    15:00 -1°C° 0.3 mm 2 mps 625 mmHg 96%
    16:00 -1°C° 0.3 mm 2 mps 625 mmHg 95%
    17:00 -1°C° 0.3 mm 2 mps 625 mmHg 95%
    18:00 -1°C° 0.3 mm 2 mps 625 mmHg 95%
    19:00 -1°C° 0.3 mm 2 mps 625 mmHg 94%
    20:00 -2°C° 0.1 mm 2 mps 625 mmHg 93%
    21:00 -2°C° 0.1 mm 2 mps 624 mmHg 92%
    22:00 -2°C° 0.1 mm 2 mps 624 mmHg 92%
    23:00 -1°C° 0 mm 1 mps 624 mmHg 91%
    Show more